User: anonymous   Login
Location: Mohawk View
(42.7837°N, 73.7885°W)
Time: 02:45:46
(UTC+00:00)
Language:

Cosmos 540 Rocket - Orbit

View from above orbital plane
View from above orbital plane
View from above satellite
View from above satellite

Ground track
Ground track

The orbit data is extracted from the following two-line orbital elements,

1 06324U 72104B   21260.33337684  .00000018  00000-0  13119-4 0  9995
2 06324  74.0756 107.2960 0009620 211.8348 148.2229 14.43549010559407
Epoch (UTC): 17 September 2021 08:00:03
Eccentricity: 0.0009620
inclination: 74.0756°
perigee height: 740 km
apogee height: 753 km
right ascension of ascending node: 107.2960°
argument of perigee: 211.8348°
revolutions per day: 14.43549010
mean anomaly at epoch: 148.2229°
orbit number at epoch: 55940

The dashed part of the orbit path shows where the satellite is in the earth's shadow,  

DLR